User: anonymous   Login
Location: Carnetin
(48.9010°N, 2.7059°E)
Time: 15:07:21
(UTC+00:00)
Language:

Cosmos 2251 Rocket - Orbit

View from above orbital plane
View from above orbital plane
View from above satellite
View from above satellite

Ground track
Ground track

The orbit data is extracted from the following two-line orbital elements,

1 22676U 93036B   22020.07670739  .00000038  00000-0  23096-4 0  9994
2 22676  74.0437 352.8877 0019527 325.7017  34.2872 14.34070084495857
Epoch (UTC): 20 January 2022 01:50:27
Eccentricity: 0.0019527
inclination: 74.0437°
perigee height: 764 km
apogee height: 792 km
right ascension of ascending node: 352.8877°
argument of perigee: 325.7017°
revolutions per day: 14.34070084
mean anomaly at epoch: 34.2872°
orbit number at epoch: 49585

The dashed part of the orbit path shows where the satellite is in the earth's shadow,  

DLR